Time,TemperatureF,DewpointF,PressureIn,WindDirection,WindDirectionDegrees,WindSpeedMPH,WindSpeedGustMPH,Humidity,HourlyPrecipIn,Conditions,Clouds,dailyrainin,SoftwareType,DateUTC
2015-07-05 00:02:00,73.6,-32.8,30.08,SW,225,2.0,2.0,1,0.00,,BKN250,0.00,VWS V15.00,2015-07-05 04:02:00,
2015-07-05 00:07:00,73.4,-32.9,30.08,SW,225,2.0,2.0,1,0.00,,BKN250,0.00,VWS V15.00,2015-07-05 04:07:00,
2015-07-05 00:12:00,73.4,-32.9,30.08,SW,225,2.0,2.0,1,0.00,,BKN250,0.00,VWS V15.00,2015-07-05 04:12:00,
2015-07-05 00:17:00,73.3,-33.0,30.08,SW,225,2.0,2.0,1,0.00,,BKN250,0.00,VWS V15.00,2015-07-05 04:17:00,
2015-07-05 00:22:00,73.1,-33.1,30.08,SW,225,2.0,2.0,1,0.00,,BKN250,0.00,VWS V15.00,2015-07-05 04:22:00,
2015-07-05 00:27:00,73.1,-33.1,30.08,SW,225,2.0,2.0,1,0.00,,BKN250,0.00,VWS V15.00,2015-07-05 04:27:00,
2015-07-05 00:31:00,73.1,-33.1,30.08,SW,225,2.0,2.0,1,0.00,,BKN250,0.00,VWS V15.00,2015-07-05 04:31:00,
2015-07-05 00:36:00,73.1,-33.1,30.08,SW,225,2.0,2.0,1,0.00,,BKN250,0.00,VWS V15.00,2015-07-05 04:36:00,
2015-07-05 00:41:00,72.9,-33.2,30.08,SW,225,2.0,2.0,1,0.00,,BKN250,0.00,VWS V15.00,2015-07-05 04:41:00,
2015-07-05 00:46:00,72.9,-33.2,30.08,SW,225,2.0,2.0,1,0.00,,BKN250,0.00,VWS V15.00,2015-07-05 04:46:00,
2015-07-05 00:51:00,72.7,-33.3,30.08,SW,225,2.0,2.0,1,0.00,,BKN250,0.00,VWS V15.00,2015-07-05 04:51:00,
2015-07-05 00:56:00,72.5,-33.4,30.08,SW,225,2.0,2.0,1,0.00,,BKN250,0.00,VWS V15.00,2015-07-05 04:56:00,
2015-07-05 01:01:00,72.5,-33.4,30.08,SW,225,2.0,2.0,1,0.00,,BKN250,0.00,VWS V15.00,2015-07-05 05:01:00,
2015-07-05 01:06:00,72.5,-33.4,30.08,SW,225,2.2,2.2,1,0.00,,BKN250,0.00,VWS V15.00,2015-07-05 05:06:00,
2015-07-05 01:11:00,72.4,-33.5,30.08,SW,225,2.2,2.2,1,0.00,,BKN250,0.00,VWS V15.00,2015-07-05 05:11:00,
2015-07-05 01:16:00,72.4,-33.5,30.07,SW,225,2.2,2.2,1,0.00,,BKN250,0.00,VWS V15.00,2015-07-05 05:16:00,
2015-07-05 01:21:00,72.4,-33.5,30.08,SSW,202,2.0,2.0,1,0.00,,BKN250,0.00,VWS V15.00,2015-07-05 05:21:00,
2015-07-05 01:26:00,72.5,-33.4,30.08,SSW,202,2.0,2.0,1,0.00,,BKN250,0.00,VWS V15.00,2015-07-05 05:26:00,
2015-07-05 01:31:00,72.5,-33.4,30.08,SW,225,4.2,4.2,1,0.00,,BKN250,0.00,VWS V15.00,2015-07-05 05:31:00,
2015-07-05 01:36:00,72.5,-33.4,30.08,SW,225,2.4,2.4,1,0.00,,BKN250,0.00,VWS V15.00,2015-07-05 05:36:00,
2015-07-05 01:41:00,72.7,-33.3,30.07,SW,225,2.4,2.4,1,0.00,,OVC250,0.00,VWS V15.00,2015-07-05 05:41:00,
2015-07-05 01:46:00,72.9,-33.2,30.08,SW,225,3.3,3.3,1,0.00,,OVC250,0.00,VWS V15.00,2015-07-05 05:46:00,
2015-07-05 01:51:00,72.9,-33.2,30.08,SSW,202,2.9,2.9,1,0.00,,OVC250,0.00,VWS V15.00,2015-07-05 05:51:00,
2015-07-05 01:56:00,73.1,-33.1,30.07,SW,225,3.3,3.3,1,0.00,,OVC250,0.00,VWS V15.00,2015-07-05 05:56:00,
2015-07-05 02:01:00,73.3,-33.0,30.07,SW,225,2.2,2.2,1,0.00,,OVC250,0.00,VWS V15.00,2015-07-05 06:01:00,
2015-07-05 02:06:00,73.3,-33.0,30.07,SW,225,3.1,3.1,1,0.00,,OVC250,0.00,VWS V15.00,2015-07-05 06:06:00,
2015-07-05 02:11:00,73.3,-33.0,30.07,WSW,248,4.9,4.9,1,0.00,,OVC250,0.00,VWS V15.00,2015-07-05 06:11:00,
2015-07-05 02:16:00,73.4,-32.9,30.07,West,270,3.3,3.3,1,0.00,,OVC250,0.00,VWS V15.00,2015-07-05 06:16:00,
2015-07-05 02:21:00,73.4,-32.9,30.07,SW,225,3.1,3.1,1,0.00,,OVC250,0.00,VWS V15.00,2015-07-05 06:21:00,
2015-07-05 02:26:00,73.4,-32.9,30.07,SW,225,2.2,2.2,1,0.00,,OVC250,0.00,VWS V15.00,2015-07-05 06:26:00,
2015-07-05 02:31:00,73.4,-32.9,30.07,SW,225,2.4,2.4,1,0.00,,OVC250,0.00,VWS V15.00,2015-07-05 06:31:00,
2015-07-05 02:36:00,73.4,-32.9,30.07,SW,225,5.4,5.4,1,0.00,,OVC250,0.00,VWS V15.00,2015-07-05 06:36:00,
2015-07-05 02:41:00,73.4,-32.9,30.07,SW,225,2.7,2.7,1,0.00,,OVC250,0.00,VWS V15.00,2015-07-05 06:41:00,
2015-07-05 02:46:00,73.4,-32.9,30.07,SW,225,2.0,2.0,1,0.00,,OVC250,0.00,VWS V15.00,2015-07-05 06:46:00,
2015-07-05 02:51:00,73.3,-33.0,30.07,SW,225,2.0,2.0,1,0.00,,OVC250,0.00,VWS V15.00,2015-07-05 06:51:00,
2015-07-05 02:56:00,73.3,-33.0,30.07,SW,225,2.0,2.0,1,0.00,,OVC250,0.00,VWS V15.00,2015-07-05 06:56:00,
2015-07-05 03:01:00,73.1,-33.1,30.08,SW,225,2.0,2.0,1,0.00,,OVC250,0.00,VWS V15.00,2015-07-05 07:01:00,
2015-07-05 03:06:00,73.1,-33.1,30.08,SW,225,2.0,2.0,1,0.00,,OVC250,0.00,VWS V15.00,2015-07-05 07:06:00,
2015-07-05 03:11:00,72.9,-33.2,30.08,SW,225,2.0,2.0,1,0.00,,OVC250,0.00,VWS V15.00,2015-07-05 07:11:00,
2015-07-05 03:16:00,72.7,-33.3,30.08,SW,225,2.0,2.0,1,0.00,,OVC250,0.00,VWS V15.00,2015-07-05 07:16:00,
2015-07-05 03:21:00,72.5,-33.4,30.08,SW,225,2.0,2.0,1,0.00,,OVC250,0.00,VWS V15.00,2015-07-05 07:21:00,
2015-07-05 03:26:00,72.4,-33.5,30.08,SW,225,2.0,2.0,1,0.00,,OVC250,0.00,VWS V15.00,2015-07-05 07:26:00,
2015-07-05 03:31:00,72.4,-33.5,30.08,SW,225,2.0,2.0,1,0.00,,OVC250,0.00,VWS V15.00,2015-07-05 07:31:00,
2015-07-05 03:36:00,72.2,-33.6,30.08,SW,225,2.0,2.0,1,0.00,,OVC250,0.00,VWS V15.00,2015-07-05 07:36:00,
2015-07-05 03:41:00,72.0,-33.7,30.08,SW,225,2.0,2.0,1,0.00,,CLR,0.00,VWS V15.00,2015-07-05 07:41:00,
2015-07-05 03:46:00,72.0,-33.7,30.08,SW,225,2.0,2.0,1,0.00,,CLR,0.00,VWS V15.00,2015-07-05 07:46:00,
2015-07-05 03:51:00,71.8,-33.9,30.08,SW,225,2.4,2.4,1,0.00,,CLR,0.00,VWS V15.00,2015-07-05 07:51:00,
2015-07-05 03:56:00,71.8,-33.9,30.08,SW,225,2.0,2.0,1,0.00,,CLR,0.00,VWS V15.00,2015-07-05 07:56:00,
2015-07-05 04:01:00,71.6,-34.0,30.08,SW,225,2.0,2.0,1,0.00,,CLR,0.00,VWS V15.00,2015-07-05 08:01:00,
2015-07-05 04:06:00,71.6,-34.0,30.08,SW,225,2.0,2.0,1,0.00,,CLR,0.00,VWS V15.00,2015-07-05 08:06:00,
2015-07-05 04:11:00,71.6,-34.0,30.08,SW,225,2.0,2.0,1,0.00,,CLR,0.00,VWS V15.00,2015-07-05 08:11:00,
2015-07-05 04:16:00,71.5,-34.0,30.08,SW,225,2.0,2.0,1,0.00,,CLR,0.00,VWS V15.00,2015-07-05 08:16:00,
2015-07-05 04:21:00,71.3,-34.2,30.08,SW,225,2.0,2.0,1,0.00,,CLR,0.00,VWS V15.00,2015-07-05 08:21:00,
2015-07-05 04:26:00,71.1,-34.3,30.08,SW,225,2.0,2.0,1,0.00,,CLR,0.00,VWS V15.00,2015-07-05 08:26:00,
2015-07-05 04:31:00,70.9,-34.4,30.08,SW,225,2.0,2.0,1,0.00,,CLR,0.00,VWS V15.00,2015-07-05 08:31:00,
2015-07-05 04:36:00,70.9,-34.4,30.08,SW,225,2.0,2.0,1,0.00,,CLR,0.00,VWS V15.00,2015-07-05 08:36:00,
2015-07-05 04:46:00,70.6,-34.6,30.08,SW,225,2.0,2.0,1,0.00,,BKN250,0.00,VWS V15.00,2015-07-05 08:46:00,
2015-07-05 04:51:00,70.4,-34.7,30.08,SW,225,2.0,2.0,1,0.00,,BKN250,0.00,VWS V15.00,2015-07-05 08:51:00,
2015-07-05 04:56:00,70.2,-34.8,30.08,SW,225,2.0,2.0,1,0.00,,BKN250,0.00,VWS V15.00,2015-07-05 08:56:00,
2015-07-05 05:01:00,70.0,-34.9,30.08,SW,225,2.0,2.0,1,0.00,,BKN250,0.00,VWS V15.00,2015-07-05 09:01:00,
2015-07-05 05:06:00,70.0,-34.9,30.09,SW,225,2.0,2.0,1,0.00,,BKN250,0.00,VWS V15.00,2015-07-05 09:06:00,
2015-07-05 05:11:00,69.8,-35.1,30.09,SW,225,2.0,2.0,1,0.00,,BKN250,0.00,VWS V15.00,2015-07-05 09:11:00,
2015-07-05 05:16:00,69.8,-35.1,30.09,SW,225,2.0,2.0,1,0.00,,BKN250,0.00,VWS V15.00,2015-07-05 09:16:00,
2015-07-05 05:21:00,69.8,-35.1,30.10,SW,225,2.0,2.0,1,0.00,,BKN250,0.00,VWS V15.00,2015-07-05 09:21:00,
2015-07-05 05:26:00,69.7,-35.1,30.10,SW,225,2.0,2.0,1,0.00,,BKN250,0.00,VWS V15.00,2015-07-05 09:26:00,
2015-07-05 05:31:00,69.7,-35.1,30.09,SW,225,2.0,2.0,1,0.00,,BKN250,0.00,VWS V15.00,2015-07-05 09:31:00,
2015-07-05 05:36:00,69.5,-35.2,30.09,SW,225,2.0,2.0,1,0.00,,BKN250,0.00,VWS V15.00,2015-07-05 09:36:00,
2015-07-05 05:41:00,69.5,-35.2,30.09,SW,225,2.0,2.0,1,0.00,,BKN250,0.00,VWS V15.00,2015-07-05 09:41:00,
2015-07-05 05:46:00,69.5,-35.2,30.10,SW,225,2.0,2.0,1,0.00,,BKN250,0.00,VWS V15.00,2015-07-05 09:46:00,
2015-07-05 05:51:00,69.3,-35.4,30.09,SW,225,2.0,2.0,1,0.00,,BKN250,0.00,VWS V15.00,2015-07-05 09:51:00,
2015-07-05 05:56:00,69.5,-35.2,30.10,SW,225,2.0,2.0,1,0.00,,BKN250,0.00,VWS V15.00,2015-07-05 09:56:00,
2015-07-05 06:01:00,69.3,-35.4,30.10,SW,225,2.0,2.0,1,0.00,,BKN250,0.00,VWS V15.00,2015-07-05 10:01:00,
2015-07-05 06:06:00,69.3,-35.4,30.10,SW,225,2.0,2.0,1,0.00,,BKN250,0.00,VWS V15.00,2015-07-05 10:06:00,
2015-07-05 06:11:00,69.3,-35.4,30.10,SW,225,2.0,2.0,1,0.00,,BKN250,0.00,VWS V15.00,2015-07-05 10:11:00,
2015-07-05 06:16:00,69.5,-35.2,30.11,SSW,202,2.0,2.0,1,0.00,,BKN250,0.00,VWS V15.00,2015-07-05 10:16:00,
2015-07-05 06:21:00,69.5,-35.2,30.11,SSW,202,2.0,2.0,1,0.00,,BKN250,0.00,VWS V15.00,2015-07-05 10:21:00,
2015-07-05 06:26:00,69.7,-35.1,30.11,WSW,248,2.0,2.0,1,0.00,,BKN250,0.00,VWS V15.00,2015-07-05 10:26:00,
2015-07-05 06:31:00,69.8,-35.1,30.11,WSW,248,2.0,2.0,1,0.00,,BKN250,0.00,VWS V15.00,2015-07-05 10:31:00,
2015-07-05 06:36:00,69.8,-35.1,30.11,SW,225,2.4,2.4,1,0.00,,BKN250,0.00,VWS V15.00,2015-07-05 10:36:00,
2015-07-05 06:41:00,70.0,-34.9,30.11,SW,225,2.0,2.0,1,0.00,,OVC250,0.00,VWS V15.00,2015-07-05 10:41:00,
2015-07-05 06:46:00,70.2,-34.8,30.11,SW,225,2.0,2.0,1,0.00,,OVC250,0.00,VWS V15.00,2015-07-05 10:46:00,
2015-07-05 06:51:00,70.4,-34.7,30.11,SW,225,2.0,2.0,1,0.00,,OVC250,0.00,VWS V15.00,2015-07-05 10:51:00,
2015-07-05 06:56:00,70.4,-34.7,30.12,SW,225,2.4,2.4,1,0.00,,OVC250,0.00,VWS V15.00,2015-07-05 10:56:00,
2015-07-05 07:01:00,70.6,-34.6,30.12,SW,225,2.0,2.0,1,0.00,,OVC250,0.00,VWS V15.00,2015-07-05 11:01:00,
2015-07-05 07:06:00,70.6,-34.6,30.12,SW,225,2.0,2.0,1,0.00,,OVC250,0.00,VWS V15.00,2015-07-05 11:06:00,
2015-07-05 07:11:00,70.7,-34.5,30.13,SSW,202,2.0,2.0,1,0.00,,OVC250,0.00,VWS V15.00,2015-07-05 11:11:00,
2015-07-05 07:16:00,70.9,-34.4,30.12,SW,225,2.0,2.0,1,0.00,,OVC250,0.00,VWS V15.00,2015-07-05 11:16:00,
2015-07-05 07:21:00,70.9,-34.4,30.12,South,180,2.0,2.0,1,0.00,,OVC250,0.00,VWS V15.00,2015-07-05 11:21:00,
2015-07-05 07:26:00,70.9,-34.4,30.12,SW,225,3.1,3.1,1,0.00,,OVC250,0.00,VWS V15.00,2015-07-05 11:26:00,
2015-07-05 07:31:00,71.1,-34.3,30.12,WSW,248,2.4,2.4,1,0.00,,OVC250,0.00,VWS V15.00,2015-07-05 11:31:00,
2015-07-05 07:36:00,71.3,-34.2,30.12,SW,225,3.6,3.6,1,0.00,,OVC250,0.00,VWS V15.00,2015-07-05 11:36:00,
2015-07-05 07:41:00,71.5,-34.0,30.12,SW,225,2.0,3.6,1,0.00,,OVC100,0.00,VWS V15.00,2015-07-05 11:41:00,
2015-07-05 07:46:00,71.6,-34.0,30.13,SW,225,3.8,3.8,1,0.00,,OVC100,0.00,VWS V15.00,2015-07-05 11:46:00,
2015-07-05 07:51:00,71.8,-33.9,30.12,SSW,202,2.0,2.0,1,0.00,,OVC100,0.00,VWS V15.00,2015-07-05 11:51:00,
2015-07-05 07:56:00,71.8,-33.9,30.12,South,180,2.4,2.4,1,0.00,,OVC100,0.00,VWS V15.00,2015-07-05 11:56:00,
2015-07-05 08:01:00,72.0,-33.7,30.12,SW,225,2.0,2.0,1,0.00,,OVC100,0.00,VWS V15.00,2015-07-05 12:01:00,
2015-07-05 08:06:00,72.0,-33.7,30.13,SW,225,3.3,3.3,1,0.00,,OVC100,0.00,VWS V15.00,2015-07-05 12:06:00,
2015-07-05 08:11:00,72.2,-33.6,30.13,SW,225,2.7,2.7,1,0.00,,OVC100,0.00,VWS V15.00,2015-07-05 12:11:00,
2015-07-05 08:16:00,72.2,-33.6,30.13,SW,225,4.5,4.5,1,0.00,,OVC100,0.00,VWS V15.00,2015-07-05 12:16:00,
2015-07-05 08:21:00,72.4,-33.5,30.12,SW,225,2.4,2.4,1,0.00,,OVC100,0.00,VWS V15.00,2015-07-05 12:21:00,
2015-07-05 08:26:00,72.7,-33.3,30.12,SSW,202,2.4,2.4,1,0.00,,OVC100,0.00,VWS V15.00,2015-07-05 12:26:00,
2015-07-05 08:31:00,73.1,-33.1,30.13,SW,225,3.8,3.8,1,0.00,,OVC100,0.00,VWS V15.00,2015-07-05 12:31:00,
2015-07-05 08:36:00,73.3,-33.0,30.13,SSW,202,2.0,2.0,1,0.00,,OVC100,0.00,VWS V15.00,2015-07-05 12:36:00,
2015-07-05 08:41:00,73.6,-32.8,30.13,SW,225,2.0,2.7,1,0.00,,OVC100,0.00,VWS V15.00,2015-07-05 12:41:00,
2015-07-05 08:46:00,74.0,-32.5,30.13,South,180,2.0,2.4,1,0.00,,OVC100,0.00,VWS V15.00,2015-07-05 12:46:00,
2015-07-05 08:51:00,74.0,-32.5,30.13,SW,225,4.7,4.7,1,0.00,,OVC100,0.00,VWS V15.00,2015-07-05 12:51:00,
2015-07-05 08:56:00,74.3,-32.3,30.13,SW,225,2.4,2.4,1,0.00,,OVC100,0.00,VWS V15.00,2015-07-05 12:56:00,
2015-07-05 09:01:00,74.7,-32.1,30.13,SSW,202,2.0,2.0,1,0.00,,OVC100,0.00,VWS V15.00,2015-07-05 13:01:00,
2015-07-05 09:06:00,74.9,-32.0,30.13,SW,225,4.0,4.0,1,0.00,,OVC100,0.00,VWS V15.00,2015-07-05 13:06:00,
2015-07-05 09:11:00,75.2,-31.8,30.13,SW,225,3.6,3.6,1,0.00,,OVC130,0.00,VWS V15.00,2015-07-05 13:11:00,
2015-07-05 09:16:00,75.4,-31.7,30.13,SSW,202,4.7,5.1,1,0.00,,OVC130,0.00,VWS V15.00,2015-07-05 13:16:00,
2015-07-05 09:21:00,76.0,-31.3,30.13,WSW,248,3.3,3.8,1,0.00,,OVC130,0.00,VWS V15.00,2015-07-05 13:21:00,
2015-07-05 09:26:00,76.3,-31.1,30.13,WSW,248,2.9,4.5,1,0.00,,OVC130,0.00,VWS V15.00,2015-07-05 13:26:00,
2015-07-05 09:31:00,76.7,-30.9,30.13,SSW,202,4.9,4.9,1,0.00,,OVC130,0.00,VWS V15.00,2015-07-05 13:31:00,
2015-07-05 09:36:00,77.0,-30.7,30.13,SSW,202,2.2,2.2,1,0.00,,OVC130,0.00,VWS V15.00,2015-07-05 13:36:00,
2015-07-05 09:41:00,77.2,-30.6,30.13,SW,225,4.7,4.7,1,0.00,,OVC007,0.00,VWS V15.00,2015-07-05 13:41:00,
2015-07-05 09:46:00,77.4,-30.5,30.13,SSW,202,2.4,2.4,1,0.00,,OVC007,0.00,VWS V15.00,2015-07-05 13:46:00,
2015-07-05 09:51:00,77.6,-30.4,30.13,SSW,202,2.4,2.4,1,0.00,,OVC007,0.00,VWS V15.00,2015-07-05 13:51:00,
2015-07-05 09:56:00,77.9,-30.2,30.14,WSW,248,2.7,2.7,1,0.00,,OVC007,0.00,VWS V15.00,2015-07-05 13:56:00,
2015-07-05 10:01:00,77.9,-30.2,30.14,SW,225,3.8,3.8,1,0.00,,OVC007,0.00,VWS V15.00,2015-07-05 14:01:00,
2015-07-05 10:06:00,78.3,-30.0,30.14,SW,225,2.9,5.4,1,0.00,,OVC007,0.00,VWS V15.00,2015-07-05 14:06:00,
2015-07-05 10:11:00,78.3,-30.0,30.14,SW,225,2.7,2.7,1,0.00,,OVC007,0.00,VWS V15.00,2015-07-05 14:11:00,
2015-07-05 10:16:00,78.5,-29.8,30.14,SW,225,3.1,3.3,1,0.00,,OVC007,0.00,VWS V15.00,2015-07-05 14:16:00,
2015-07-05 10:21:00,78.7,-29.7,30.14,WSW,248,2.2,3.8,1,0.00,,OVC007,0.00,VWS V15.00,2015-07-05 14:21:00,
2015-07-05 10:26:00,79.0,-29.5,30.14,SSW,202,2.4,2.4,1,0.00,,OVC007,0.00,VWS V15.00,2015-07-05 14:26:00,
2015-07-05 10:31:00,79.4,-29.3,30.14,SE,135,2.7,2.7,1,0.00,,OVC007,0.00,VWS V15.00,2015-07-05 14:31:00,
2015-07-05 10:36:00,79.6,-29.2,30.14,WSW,248,6.0,6.0,1,0.00,,OVC007,0.00,VWS V15.00,2015-07-05 14:36:00,
2015-07-05 10:41:00,79.7,-29.1,30.14,SW,225,4.0,4.0,1,0.00,,OVC140,0.00,VWS V15.00,2015-07-05 14:41:00,
2015-07-05 10:46:00,79.9,-29.0,30.14,SW,225,2.4,2.4,1,0.00,,OVC140,0.00,VWS V15.00,2015-07-05 14:46:00,
2015-07-05 10:51:00,79.6,-29.2,30.14,SSW,202,3.6,3.6,1,0.00,,OVC140,0.00,VWS V15.00,2015-07-05 14:51:00,
2015-07-05 10:56:00,79.7,-29.1,30.14,WSW,248,2.9,2.9,1,0.00,,OVC140,0.00,VWS V15.00,2015-07-05 14:56:00,
2015-07-05 11:01:00,79.9,-29.0,30.14,SW,225,2.4,2.7,1,0.00,,OVC140,0.00,VWS V15.00,2015-07-05 15:01:00,
2015-07-05 11:06:00,79.9,-29.0,30.14,SW,225,3.1,3.1,1,0.00,,OVC140,0.00,VWS V15.00,2015-07-05 15:06:00,
2015-07-05 11:11:00,80.3,-28.8,30.14,SW,225,3.6,3.6,1,0.00,,OVC140,0.00,VWS V15.00,2015-07-05 15:11:00,
2015-07-05 11:16:00,80.6,-28.6,30.14,SE,135,2.9,3.8,1,0.00,,OVC140,0.00,VWS V15.00,2015-07-05 15:16:00,
2015-07-05 11:21:00,81.2,-28.2,30.14,WSW,248,3.8,4.7,1,0.00,,OVC140,0.00,VWS V15.00,2015-07-05 15:21:00,
2015-07-05 11:26:00,81.7,-27.9,30.14,SSW,202,2.0,2.0,1,0.00,,OVC140,0.00,VWS V15.00,2015-07-05 15:26:00,
2015-07-05 11:31:00,82.3,-27.5,30.14,SSW,202,3.6,3.6,1,0.00,,OVC140,0.00,VWS V15.00,2015-07-05 15:31:00,
2015-07-05 11:36:00,82.6,-27.4,30.14,SSW,202,3.8,3.8,1,0.00,,OVC140,0.00,VWS V15.00,2015-07-05 15:36:00,
2015-07-05 11:41:00,83.0,-27.1,30.14,SW,225,2.4,2.4,1,0.00,,OVC140,0.00,VWS V15.00,2015-07-05 15:41:00,
2015-07-05 11:46:00,83.2,-27.0,30.14,West,270,4.2,4.2,1,0.00,,OVC140,0.00,VWS V15.00,2015-07-05 15:46:00,
2015-07-05 11:51:00,83.5,-26.8,30.14,WSW,248,4.0,4.0,1,0.00,,OVC140,0.00,VWS V15.00,2015-07-05 15:51:00,
2015-07-05 11:56:00,83.5,-26.8,30.14,SW,225,3.3,3.3,1,0.00,,OVC140,0.00,VWS V15.00,2015-07-05 15:56:00,
2015-07-05 12:01:00,83.2,-27.0,30.14,NNW,338,3.8,5.6,1,0.00,,OVC140,0.00,VWS V15.00,2015-07-05 16:01:00,
2015-07-05 12:06:00,82.8,-27.2,30.13,SSW,202,3.8,3.8,1,0.00,,OVC140,0.00,VWS V15.00,2015-07-05 16:06:00,
2015-07-05 12:11:00,83.2,-27.0,30.13,WSW,248,4.5,4.5,1,0.00,,OVC140,0.00,VWS V15.00,2015-07-05 16:11:00,
2015-07-05 12:21:00,84.1,-26.5,30.13,NNW,338,3.3,3.3,1,0.00,,OVC140,0.00,VWS V15.00,2015-07-05 16:21:00,
2015-07-05 12:26:00,84.2,-26.4,30.12,WNW,292,4.2,4.2,1,0.00,,OVC140,0.00,VWS V15.00,2015-07-05 16:26:00,
2015-07-05 12:31:00,84.4,-26.3,30.13,SSW,202,6.3,6.3,1,0.00,,OVC140,0.00,VWS V15.00,2015-07-05 16:31:00,
2015-07-05 12:36:00,85.0,-25.9,30.12,WSW,248,3.8,3.8,1,0.00,,OVC140,0.00,VWS V15.00,2015-07-05 16:36:00,
2015-07-05 12:41:00,85.0,-25.9,30.12,SSW,202,3.1,3.1,1,0.00,,BKN250,0.00,VWS V15.00,2015-07-05 16:41:00,
2015-07-05 12:46:00,85.0,-25.9,30.12,South,180,4.5,4.5,1,0.00,,BKN250,0.00,VWS V15.00,2015-07-05 16:46:00,
2015-07-05 12:51:00,85.1,-25.9,30.12,ESE,112,2.9,2.9,1,0.00,,BKN250,0.00,VWS V15.00,2015-07-05 16:51:00,
2015-07-05 12:56:00,85.3,-25.8,30.12,WSW,248,2.7,2.7,1,0.00,,BKN250,0.00,VWS V15.00,2015-07-05 16:56:00,
2015-07-05 13:01:00,85.7,-25.5,30.12,SW,225,3.3,5.6,1,0.00,,BKN250,0.00,VWS V15.00,2015-07-05 17:01:00,
2015-07-05 13:06:00,86.0,-25.3,30.11,SSE,158,2.7,2.7,1,0.00,,BKN250,0.00,VWS V15.00,2015-07-05 17:06:00,
2015-07-05 13:11:00,86.0,-25.3,30.11,WSW,248,3.1,3.1,1,0.00,,BKN250,0.00,VWS V15.00,2015-07-05 17:11:00,
2015-07-05 13:16:00,86.6,-25.0,30.11,South,180,5.1,5.1,1,0.00,,BKN250,0.00,VWS V15.00,2015-07-05 17:16:00,
2015-07-05 13:21:00,87.1,-24.7,30.11,SSW,202,2.2,2.2,1,0.00,,BKN250,0.00,VWS V15.00,2015-07-05 17:21:00,
2015-07-05 13:26:00,87.5,-24.5,30.10,SE,135,2.7,2.7,1,0.00,,BKN250,0.00,VWS V15.00,2015-07-05 17:26:00,
2015-07-05 13:30:00,87.5,-24.5,30.11,WSW,248,4.7,4.7,1,0.00,,BKN250,0.00,VWS V15.00,2015-07-05 17:30:00,
2015-07-05 13:35:00,87.5,-24.5,30.10,SSW,202,2.9,2.9,1,0.00,,BKN250,0.00,VWS V15.00,2015-07-05 17:35:00,
2015-07-05 13:40:00,87.8,-24.3,30.10,WSW,248,4.0,4.0,1,0.00,,BKN250,0.00,VWS V15.00,2015-07-05 17:40:00,
2015-07-05 13:45:00,88.0,-24.1,30.10,NNW,338,2.7,2.7,1,0.00,,BKN250,0.00,VWS V15.00,2015-07-05 17:45:00,
2015-07-05 13:50:00,88.4,-23.9,30.10,SW,225,8.0,8.0,1,0.00,,BKN250,0.00,VWS V15.00,2015-07-05 17:50:00,
2015-07-05 13:55:00,88.6,-23.8,30.10,SW,225,3.1,3.1,1,0.00,,BKN250,0.00,VWS V15.00,2015-07-05 17:55:00,
2015-07-05 14:00:00,88.7,-23.7,30.10,SSE,158,2.9,2.9,1,0.00,,BKN250,0.00,VWS V15.00,2015-07-05 18:00:00,
2015-07-05 14:05:00,88.9,-23.6,30.10,SSW,202,4.7,4.7,1,0.00,,BKN250,0.00,VWS V15.00,2015-07-05 18:05:00,
2015-07-05 14:10:00,88.9,-23.6,30.09,NNW,338,4.5,4.5,1,0.00,,BKN250,0.00,VWS V15.00,2015-07-05 18:10:00,
2015-07-05 14:15:00,88.9,-23.6,30.09,SW,225,3.8,3.8,1,0.00,,BKN250,0.00,VWS V15.00,2015-07-05 18:15:00,
2015-07-05 14:20:00,89.3,-23.4,30.09,WSW,248,6.0,6.0,1,0.00,,BKN250,0.00,VWS V15.00,2015-07-05 18:20:00,
2015-07-05 14:25:00,89.5,-23.3,30.09,SW,225,3.3,3.3,1,0.00,,BKN250,0.00,VWS V15.00,2015-07-05 18:25:00,
2015-07-05 14:30:00,89.8,-23.1,30.09,WSW,248,3.1,3.1,1,0.00,,BKN250,0.00,VWS V15.00,2015-07-05 18:30:00,
2015-07-05 14:35:00,90.2,-22.9,30.08,SSW,202,5.1,5.1,1,0.00,,BKN250,0.00,VWS V15.00,2015-07-05 18:35:00,
2015-07-05 14:40:00,89.6,-23.2,30.08,SW,225,6.7,6.7,1,0.00,,BKN250,0.00,VWS V15.00,2015-07-05 18:40:00,
2015-07-05 14:45:00,88.9,-23.6,30.08,WSW,248,3.6,3.6,1,0.00,,BKN250,0.00,VWS V15.00,2015-07-05 18:45:00,
2015-07-05 14:50:00,89.3,-23.4,30.08,SW,225,2.4,2.4,1,0.00,,BKN250,0.00,VWS V15.00,2015-07-05 18:50:00,
2015-07-05 14:55:00,90.0,-23.0,30.08,WSW,248,2.7,3.6,1,0.00,,BKN250,0.00,VWS V15.00,2015-07-05 18:55:00,
2015-07-05 15:00:00,90.2,-22.9,30.08,SSW,202,3.6,3.6,1,0.00,,BKN250,0.00,VWS V15.00,2015-07-05 19:00:00,
2015-07-05 15:05:00,90.4,-22.7,30.08,NE,45,2.7,2.7,1,0.00,,BKN250,0.00,VWS V15.00,2015-07-05 19:05:00,
2015-07-05 15:10:00,90.7,-22.5,30.08,SE,135,2.4,2.4,1,0.00,,BKN250,0.00,VWS V15.00,2015-07-05 19:10:00,
2015-07-05 15:15:00,90.4,-22.7,30.08,WSW,248,3.6,3.6,1,0.00,,BKN250,0.00,VWS V15.00,2015-07-05 19:15:00,
2015-07-05 15:20:00,90.0,-23.0,30.08,South,180,2.9,2.9,1,0.00,,BKN250,0.00,VWS V15.00,2015-07-05 19:20:00,
2015-07-05 15:25:00,89.1,-23.5,30.08,SSW,202,3.6,3.6,1,0.00,,BKN250,0.00,VWS V15.00,2015-07-05 19:25:00,
2015-07-05 15:35:00,88.0,-24.1,30.08,SW,225,5.1,5.1,1,0.00,,BKN250,0.00,VWS V15.00,2015-07-05 19:35:00,
2015-07-05 15:40:00,87.1,-24.7,30.09,NNW,338,4.9,4.9,1,0.00,,SCT060,0.00,VWS V15.00,2015-07-05 19:40:00,
2015-07-05 15:45:00,85.9,-25.4,30.09,WNW,292,3.6,3.6,1,0.00,,SCT060,0.00,VWS V15.00,2015-07-05 19:45:00,
2015-07-05 15:50:00,85.3,-25.8,30.09,West,270,2.4,4.7,1,0.00,,RA,0.00,VWS V15.00,2015-07-05 19:50:00,
2015-07-05 15:55:00,85.3,-25.8,30.08,NW,315,2.4,2.4,1,0.00,,RA,0.00,VWS V15.00,2015-07-05 19:55:00,
2015-07-05 16:00:00,85.9,-25.4,30.08,NW,315,4.5,4.5,1,0.00,,RA,0.00,VWS V15.00,2015-07-05 20:00:00,
2015-07-05 16:05:00,85.7,-25.5,30.08,WNW,292,3.1,3.1,1,0.00,,RA,0.00,VWS V15.00,2015-07-05 20:05:00,
2015-07-05 16:10:00,85.3,-25.8,30.08,SW,225,3.1,3.1,1,0.00,,RA,0.00,VWS V15.00,2015-07-05 20:10:00,
2015-07-05 16:15:00,85.3,-25.8,30.08,WSW,248,3.3,3.3,1,0.00,,RA,0.00,VWS V15.00,2015-07-05 20:15:00,
2015-07-05 16:20:00,84.8,-26.1,30.07,South,180,4.5,4.5,1,0.00,,RA,0.00,VWS V15.00,2015-07-05 20:20:00,
2015-07-05 16:25:00,83.9,-26.6,30.08,SSW,202,5.4,5.4,1,0.00,,RA,0.00,VWS V15.00,2015-07-05 20:25:00,
2015-07-05 16:30:00,83.0,-27.1,30.07,NNW,338,5.6,5.6,1,0.00,,RA,0.00,VWS V15.00,2015-07-05 20:30:00,
2015-07-05 16:35:00,82.3,-27.5,30.07,SW,225,6.7,6.7,1,0.00,,RA,0.00,VWS V15.00,2015-07-05 20:35:00,
2015-07-05 16:40:00,82.4,-27.5,30.07,NW,315,3.6,3.6,1,0.00,,BKN250,0.00,VWS V15.00,2015-07-05 20:40:00,
2015-07-05 16:45:00,82.6,-27.4,30.07,South,180,2.2,3.1,1,0.00,,BKN250,0.00,VWS V15.00,2015-07-05 20:45:00,
2015-07-05 16:50:00,82.6,-27.4,30.07,SE,135,2.4,2.4,1,0.00,,BKN250,0.00,VWS V15.00,2015-07-05 20:50:00,
2015-07-05 16:55:00,82.6,-27.4,30.07,SSE,158,2.0,2.4,1,0.00,,BKN250,0.00,VWS V15.00,2015-07-05 20:55:00,
2015-07-05 17:00:00,82.8,-27.2,30.07,NE,45,2.7,2.7,1,0.00,,BKN250,0.00,VWS V15.00,2015-07-05 21:00:00,
2015-07-05 17:05:00,83.0,-27.1,30.07,SW,225,4.5,4.5,1,0.00,,BKN250,0.00,VWS V15.00,2015-07-05 21:05:00,
2015-07-05 17:10:00,83.2,-27.0,30.06,SW,225,5.1,5.1,1,0.00,,BKN250,0.00,VWS V15.00,2015-07-05 21:10:00,
2015-07-05 17:15:00,83.7,-26.7,30.06,WNW,292,3.3,3.3,1,0.00,,BKN250,0.00,VWS V15.00,2015-07-05 21:15:00,
2015-07-05 17:20:00,84.2,-26.4,30.07,SW,225,3.1,3.1,1,0.00,,BKN250,0.00,VWS V15.00,2015-07-05 21:20:00,
2015-07-05 17:25:00,84.2,-26.4,30.07,SW,225,4.5,4.5,1,0.00,,BKN250,0.00,VWS V15.00,2015-07-05 21:25:00,